DELTA 1 DEB, 21296

Orbit data source: Space-Track

DELTA 1 DEB, 21296 is space debris in SSO originally from a launch on Thu, 12 Jun 1975 UTC launched from the Air Force Western Test Range (AFWTR). Debris objects in space refer to the collection of defunct objects orbiting the Earth. Examples of debris include non-operational satellites, rocket bodies, and fragments generated from explosions, collisions, or faulty payload assembly.

Loading next visibility...
DELTA 1 DEB details
Identifier
21296, 1975-052AH
Orbit
SSO
Last TLE update11 hours ago
Origin
Flag of USGSFC (US)
ManufacturerUnknown
MissionSpacecraft
Bus & MotorUnknown
MassUnknown
Launch date (UTC)
1975-06-12 (50 years ago)
Launch vehicleUnknown
Launch site
Air Force Western Test Range (AFWTR)
Object type
Payload
Rocket body
Debris
Shape & HBRUnknown
Radar Cross SectionSmall (<0.1 m²)

Expand to show TLE details & history

TLE from 11 hours ago
0 DELTA 1 DEB
1 21296U 75052AH  24361.07600400  .00000308  00000-0  85902-3 0  9990
2 21296  99.6048 222.1188 0235730  77.8867  86.7893 13.10420788605809
Epoch: 2024-12-26T01:49Z
Definitive object data (Epoch: 2024-12-26T01:49:26.745Z)
Latitude12.40631°
Longitude-78.18065°
Altitude1,217.699 km
Speed7.249 km/s
True Right ascension02h 56m 57s
True Declination12° 20' 19"
Sunlit
Object was in full shadow at TLE epoch
Visualization TLE readout
Latitude-40.25559°
Longitude-88.07764°
Altitude1,380.071 km
Speed7.1 km/s
Apparent Right ascension01h 27m 41s
Apparent Declination-40° 44' 47"
Sunlit
Object is in daylight
Visualization observer readout
Local Sidereal Time12:27:20
Azimuth260.996° W
Elevation-78.483°
Doppler factor1
Orbital elements
Apogee altitude1,397.964 km
Perigee altitude1,039.795 km
Semi-major axis7,597.016 km
Eccentricity0.023573
Inclination99.6048°
RAAN222.1188°
Arg. of periapsis77.8867°
True anomaly89.48978°
Mean anomaly86.7893°
Eccentric anomaly88.13922°
Mean motion3.27777 °/min
BSTAR0.00085902
Orbital period109.83 mins
Loading maneuver chart data...
Loading historical data...
Loading historical data...
Loading historical data...
Loading historical data...
Loading historical data...
Loading historical data...
Loading historical data...

DELTA 1 DEB Visibility forecast

Observer location: undefined°, undefined

Span
Click to sort rows by Start time (UTC) header in descending order
Start Az.
Max El. time (UTC)
Max El. Az.
Max El.
End time (UTC)
End Az.
11 mins2024-12-26 13:56:43.069Z130.329° SE2024-12-26 14:02:43.069Z64.403° ENE31.135°2024-12-26 14:07:43.069Z4.667° NNE
9 mins2024-12-26 15:46:43.069Z207.379° SW2024-12-26 15:50:43.069Z258.385° W29.981°2024-12-26 15:55:43.069Z321.992° NNW
11 mins2024-12-27 03:15:43.069Z32.202° NE2024-12-27 03:20:43.069Z100.151° ESE36.316°2024-12-27 03:26:43.069Z170.489° S
9 mins2024-12-27 05:04:43.069Z345.118° N2024-12-27 05:08:43.069Z296.915° NW27.023°2024-12-27 05:13:43.069Z242.611° WSW
|